Location: Unspecified
(0.0000°N, 0.0000°E)
Time: 13:24:10
(UTC+00:00)

Vanguard 2 - Pass Details

Date: 17 September 2019
Orbit: 554 x 2937 km, 32.9° (Epoch: 13 October)

Event Time Altitude Azimuth Distance (km) Brightness Sun altitude
Rises 21:37:37 0° 221° (SW) 6,202 12.4 -55.7°
Reaches altitude 10° 21:42:00 10° 213° (SSW) 5,424 12.0 -56.8°
Enters shadow 21:48:31 26° 195° (SSW) 4,465 11.3 -58.5°
Maximum altitude 21:57:28 39° 149° (SSE) 3,871 - -60.7°
Drops below altitude 10° 22:12:32 10° 87° (E) 5,351 - -64.4°
Sets 22:16:44 0° 79° (E) 6,119 - -65.5°
